When you browse on this site, cookies collect data to enhance your experience and personalize the content and advertising you see.
Visit our Privacy Policy to learn more. By continuing to use the site, you agree to this use of cookies and data.
  • In Spain
  • List of Countries
  • For 7 days
  • Water Temperature
  • Satellite Maps
  • Weather Map
  • Weather Widgets
  • user-avatar
    Login

    Hourly Weather Booué

    Today, 19 December, Wednesday

    Time Temperature Precipitation Wind Pressure Humidity
    00:00 +25°C° 0.1 mm 1 mps 735 mmHg 93%
    01:00 +25°C° 0 mm 1 mps 735 mmHg 94%
    02:00 +24°C° 0 mm 1 mps 735 mmHg 95%
    03:00 +24°C° 0 mm 1 mps 735 mmHg 95%
    04:00 +24°C° 0 mm 1 mps 735 mmHg 96%
    05:00 +24°C° 0 mm 1 mps 735 mmHg 95%
    06:00 +24°C° 0 mm 1 mps 735 mmHg 94%
    07:00 +25°C° 0 mm 1 mps 735 mmHg 93%
    08:00 +27°C° 0 mm 1 mps 736 mmHg 82%
    09:00 +29°C° 0 mm 1 mps 736 mmHg 72%
    10:00 +31°C° 0 mm 1 mps 736 mmHg 61%
    11:00 +33°C° 0 mm 1 mps 735 mmHg 56%
    12:00 +34°C° 0 mm 1 mps 735 mmHg 50%
    13:00 +35°C° 0 mm 1 mps 734 mmHg 45%
    14:00 +35°C° 0 mm 1 mps 733 mmHg 46%
    15:00 +34°C° 0 mm 1 mps 733 mmHg 47%
    16:00 +34°C° 0 mm 1 mps 732 mmHg 47%
    17:00 +32°C° 0.1 mm 1 mps 732 mmHg 56%
    18:00 +30°C° 0.1 mm 1 mps 733 mmHg 64%
    19:00 +28°C° 0.1 mm 1 mps 733 mmHg 72%
    20:00 +28°C° 0.1 mm 1 mps 734 mmHg 76%
    21:00 +27°C° 0.1 mm 2 mps 734 mmHg 80%
    22:00 +26°C° 0.1 mm 2 mps 735 mmHg 84%
    23:00 +26°C° 0 mm 2 mps 735 mmHg 86%

    Tomorrow, 20 December, Thursday

    Time Temperature Precipitation Wind Pressure Humidity
    00:00 +25°C° 0 mm 2 mps 735 mmHg 88%
    01:00 +25°C° 0 mm 2 mps 735 mmHg 90%
    02:00 +25°C° 0 mm 1 mps 735 mmHg 91%
    03:00 +24°C° 0 mm 1 mps 734 mmHg 93%
    04:00 +24°C° 0 mm 1 mps 734 mmHg 94%
    05:00 +24°C° 0 mm 1 mps 734 mmHg 94%
    06:00 +24°C° 0 mm 1 mps 735 mmHg 93%
    07:00 +24°C° 0 mm 1 mps 735 mmHg 92%
    08:00 +26°C° 0 mm 1 mps 735 mmHg 84%
    09:00 +28°C° 0 mm 1 mps 736 mmHg 77%
    10:00 +29°C° 0 mm 1 mps 736 mmHg 69%
    11:00 +30°C° 0.1 mm 1 mps 735 mmHg 66%
    12:00 +31°C° 0.1 mm 2 mps 735 mmHg 62%
    13:00 +32°C° 0.1 mm 2 mps 734 mmHg 59%
    14:00 +32°C° 0 mm 2 mps 734 mmHg 58%
    15:00 +32°C° 0 mm 1 mps 733 mmHg 58%
    16:00 +32°C° 0 mm 1 mps 732 mmHg 57%
    17:00 +30°C° 0 mm 1 mps 733 mmHg 64%
    18:00 +29°C° 0 mm 1 mps 733 mmHg 71%
    19:00 +27°C° 0 mm 1 mps 734 mmHg 78%
    20:00 +26°C° 0.3 mm 1 mps 734 mmHg 82%
    21:00 +26°C° 0.3 mm 1 mps 735 mmHg 87%
    22:00 +25°C° 0.3 mm 1 mps 736 mmHg 91%
    23:00 +25°C° 0 mm 1 mps 736 mmHg 92%

    Day after tomorrow, 21 December, Friday

    Time Temperature Precipitation Wind Pressure Humidity
    00:00 +25°C° 0 mm 1 mps 735 mmHg 92%
    01:00 +24°C° 0 mm 1 mps 735 mmHg 93%
    02:00 +24°C° 0 mm 1 mps 735 mmHg 94%
    03:00 +24°C° 0 mm 1 mps 734 mmHg 94%
    04:00 +24°C° 0 mm 1 mps 734 mmHg 94%
    05:00 +24°C° 0 mm 1 mps 734 mmHg 93%
    06:00 +24°C° 0 mm 1 mps 735 mmHg 93%
    07:00 +24°C° 0 mm 1 mps 735 mmHg 92%
    08:00 +26°C° 0 mm 1 mps 735 mmHg 84%
    09:00 +28°C° 0 mm 1 mps 736 mmHg 77%
    10:00 +29°C° 0 mm 1 mps 736 mmHg 69%
    11:00 +30°C° 0.2 mm 1 mps 735 mmHg 65%
    12:00 +31°C° 0.2 mm 1 mps 735 mmHg 62%
    13:00 +32°C° 0.2 mm 2 mps 734 mmHg 58%
    14:00 +32°C° 0.3 mm 1 mps 733 mmHg 58%
    15:00 +32°C° 0.3 mm 1 mps 733 mmHg 58%
    16:00 +32°C° 0.3 mm 1 mps 732 mmHg 57%
    17:00 +30°C° 0.1 mm 1 mps 732 mmHg 66%
    18:00 +28°C° 0.1 mm 1 mps 733 mmHg 74%
    19:00 +26°C° 0.1 mm 1 mps 733 mmHg 82%
    20:00 +26°C° 0.1 mm 1 mps 734 mmHg 85%
    21:00 +25°C° 0.1 mm 1 mps 735 mmHg 88%
    22:00 +25°C° 0.1 mm 1 mps 735 mmHg 91%
    23:00 +25°C° 0 mm 1 mps 735 mmHg 92%

    22 December, Saturday

    Time Temperature Precipitation Wind Pressure Humidity
    00:00 +24°C° 0 mm 1 mps 735 mmHg 94%
    01:00 +24°C° 0 mm 1 mps 734 mmHg 95%
    02:00 +24°C° 0 mm 1 mps 734 mmHg 96%
    03:00 +24°C° 0 mm 1 mps 734 mmHg 97%
    04:00 +23°C° 0 mm 1 mps 733 mmHg 98%
    05:00 +24°C° 0 mm 1 mps 734 mmHg 96%
    06:00 +24°C° 0 mm 1 mps 734 mmHg 95%
    07:00 +24°C° 0 mm 1 mps 735 mmHg 93%
    08:00 +26°C° 0 mm 1 mps 735 mmHg 86%
    09:00 +27°C° 0 mm 1 mps 735 mmHg 79%
    10:00 +29°C° 0 mm 1 mps 736 mmHg 72%
    11:00 +30°C° 0.2 mm 1 mps 735 mmHg 68%
    12:00 +30°C° 0.2 mm 1 mps 734 mmHg 65%
    13:00 +31°C° 0.2 mm 1 mps 733 mmHg 61%
    14:00 +32°C° 0.1 mm 1 mps 732 mmHg 58%
    15:00 +32°C° 0.1 mm 1 mps 732 mmHg 56%
    16:00 +32°C° 0.1 mm 1 mps 731 mmHg 53%
    17:00 +31°C° 0 mm 1 mps 732 mmHg 61%
    18:00 +29°C° 0 mm 1 mps 732 mmHg 68%
    19:00 +27°C° 0 mm 1 mps 733 mmHg 76%
    20:00 +26°C° 0.2 mm 1 mps 733 mmHg 79%
    21:00 +26°C° 0.2 mm 1 mps 734 mmHg 82%
    22:00 +25°C° 0.2 mm 1 mps 734 mmHg 86%
    23:00 +25°C° 0.2 mm 1 mps 734 mmHg 88%

    23 December, Sunday

    Time Temperature Precipitation Wind Pressure Humidity
    00:00 +25°C° 0.2 mm 1 mps 734 mmHg 90%
    01:00 +24°C° 0.2 mm 1 mps 733 mmHg 92%
    02:00 +24°C° 0 mm 1 mps 733 mmHg 92%
    03:00 +24°C° 0 mm 1 mps 733 mmHg 93%
    04:00 +24°C° 0 mm 1 mps 733 mmHg 93%
    05:00 +24°C° 0 mm 1 mps 733 mmHg 93%
    06:00 +24°C° 0 mm 1 mps 733 mmHg 92%
    07:00 +24°C° 0 mm 1 mps 734 mmHg 92%
    08:00 +25°C° 0 mm 1 mps 734 mmHg 88%
    09:00 +26°C° 0 mm 1 mps 734 mmHg 84%
    10:00 +27°C° 0 mm 1 mps 735 mmHg 79%
    11:00 +29°C° 0 mm 1 mps 734 mmHg 71%
    12:00 +31°C° 0 mm 1 mps 733 mmHg 62%
    13:00 +33°C° 0 mm 1 mps 732 mmHg 54%
    14:00 +33°C° 0 mm 1 mps 732 mmHg 54%
    15:00 +32°C° 0 mm 1 mps 731 mmHg 54%
    16:00 +32°C° 0 mm 1 mps 731 mmHg 54%
    17:00 +30°C° 0.1 mm 1 mps 731 mmHg 63%
    18:00 +29°C° 0.1 mm 1 mps 732 mmHg 71%
    19:00 +27°C° 0.1 mm 1 mps 732 mmHg 79%
    20:00 +26°C° 0.1 mm 1 mps 732 mmHg 82%
    21:00 +26°C° 0.1 mm 1 mps 733 mmHg 84%
    22:00 +25°C° 0.1 mm 1 mps 734 mmHg 87%
    23:00 +25°C° 0 mm 1 mps 733 mmHg 88%

    24 December, Monday

    Time Temperature Precipitation Wind Pressure Humidity
    00:00 +25°C° 0 mm 1 mps 733 mmHg 90%
    01:00 +24°C° 0 mm 1 mps 733 mmHg 92%
    02:00 +24°C° 0 mm 1 mps 733 mmHg 93%
    03:00 +24°C° 0 mm 1 mps 733 mmHg 94%
    04:00 +24°C° 0 mm 1 mps 732 mmHg 95%
    05:00 +24°C° 0 mm 1 mps 733 mmHg 94%
    06:00 +24°C° 0 mm 1 mps 733 mmHg 94%
    07:00 +24°C° 0 mm 1 mps 734 mmHg 93%
    08:00 +26°C° 0 mm 1 mps 734 mmHg 84%
    09:00 +28°C° 0 mm 1 mps 734 mmHg 76%
    10:00 +30°C° 0 mm 1 mps 735 mmHg 68%
    11:00 +31°C° 0.1 mm 1 mps 734 mmHg 63%
    12:00 +32°C° 0.1 mm 1 mps 733 mmHg 58%
    13:00 +33°C° 0.1 mm 1 mps 732 mmHg 54%
    14:00 +33°C° 0.2 mm 1 mps 732 mmHg 55%
    15:00 +34°C° 0.2 mm 2 mps 731 mmHg 56%
    16:00 +32°C° 0.2 mm 2 mps 731 mmHg 57%
    17:00 +30°C° 0.2 mm 1 mps 731 mmHg 66%
    18:00 +28°C° 0.2 mm 1 mps 732 mmHg 75%
    19:00 +26°C° 0.2 mm 1 mps 732 mmHg 84%
    20:00 +26°C° 0.3 mm 1 mps 733 mmHg 86%
    21:00 +26°C° 0.3 mm 1 mps 733 mmHg 88%
    22:00 +25°C° 0.3 mm 2 mps 734 mmHg 90%
    23:00 +25°C° 0 mm 2 mps 734 mmHg 91%
    Show more